Location: Santa Cristina
(46.5667°N, 11.7167°E)
Time: 06:13:08
(UTC+00:00)

Cosmos 1726 - Pass Details

Date: 21 April 2021
Orbit: 481 x 496 km, 82.5° (Epoch: 05 May)

Event Time Altitude Azimuth Distance (km) Brightness Sun altitude
Rises 03:04:39 0° 354° (N) 2,595 6.1 -11.8°
Reaches altitude 10° 03:06:49 10° 359° (N) 1,707 5.2 -11.5°
Maximum altitude 03:10:30 56° 78° (ENE) 599 2.9 -11.0°
Drops below altitude 10° 03:14:09 10° 158° (SSE) 1,691 4.7 -10.4°
Sets 03:16:16 0° 163° (SSE) 2,568 5.6 -10.1°
